CDT,Max TemperatureF,Mean TemperatureF,Min TemperatureF,Max Dew PointF,MeanDew PointF,Min DewpointF,Max Humidity, Mean Humidity, Min Humidity, Max Sea Level PressureIn, Mean Sea Level PressureIn, Min Sea Level PressureIn, Max VisibilityMiles, Mean VisibilityMiles, Min VisibilityMiles, Max Wind SpeedMPH, Mean Wind SpeedMPH, Max Gust SpeedMPH,PrecipitationIn, CloudCover, Events, WindDirDegrees
2013-4-1,35,30,26,30,18,14,81,56,41,30.15,30.06,29.86,10,10,10,17,9,24,0.00,3,,336
2013-4-2,41,34,26,19,14,9,69,46,28,30.30,30.23,30.16,10,10,10,12,7,20,0.00,1,,317
2013-4-3,39,29,19,27,17,12,93,62,33,30.46,30.38,30.30,10,10,10,13,3,17,0.00,0,,3
2013-4-4,53,38,23,27,18,14,86,47,21,30.33,30.13,29.97,10,10,10,10,2,,0.00,1,,245
2013-4-5,44,38,32,34,27,18,93,67,36,30.22,30.14,29.98,10,10,7,17,9,23,0.00,2,,10
2013-4-6,69,50,32,37,29,23,80,44,25,30.17,29.92,29.65,10,10,10,23,8,33,0.00,3,Rain,166
2013-4-7,59,48,37,46,37,32,87,68,54,29.98,29.88,29.64,10,10,10,33,13,48,0.00,3,Rain,302
2013-4-8,64,52,37,54,41,32,94,74,52,30.00,29.83,29.68,10,9,3,26,8,43,0.00,3,Rain,104
2013-4-9,75,56,37,55,45,36,100,80,43,30.01,29.92,29.82,10,8,1,14,3,26,0.00,7,Rain,264
2013-4-10,48,42,37,46,40,37,100,95,87,29.97,29.87,29.82,10,7,2,15,4,22,0.00,8,Rain,32
2013-4-11,44,42,41,45,42,39,100,95,93,29.86,29.66,29.57,10,7,2,13,8,23,0.00,8,Rain,106
2013-4-12,44,40,35,41,34,30,100,84,71,29.85,29.69,29.59,10,9,2,18,9,26,0.00,8,Rain,245
2013-4-13,44,38,33,34,30,27,93,73,53,30.00,29.92,29.86,10,10,5,18,10,32,0.00,8,Rain,260
2013-4-14,64,50,35,45,37,28,87,63,45,30.03,29.90,29.75,10,10,10,17,5,26,0.00,4,Rain,120
2013-4-15,64,53,42,55,48,43,100,76,55,29.97,29.86,29.75,10,9,2,18,11,32,0.00,6,Rain,203
2013-4-16,46,44,41,43,35,30,100,76,57,30.26,30.14,29.97,10,10,4,12,5,16,0.00,6,Rain,3
2013-4-17,53,47,41,48,40,32,100,78,58,30.28,30.12,29.84,10,9,1,22,6,34,0.00,8,Rain,80
2013-4-18,69,56,44,63,55,41,100,92,78,29.82,29.62,29.46,10,8,4,21,9,39,0.00,7,Rain,179
2013-4-19,44,38,33,41,30,28,93,77,70,29.90,29.65,29.52,10,10,10,28,15,36,0.00,8,Rain,248
2013-4-20,41,36,30,30,21,16,87,59,39,30.45,30.22,29.91,10,10,5,13,8,25,0.00,3,Snow,326
2013-4-21,51,40,28,30,21,14,80,46,28,30.55,30.45,30.36,10,10,10,13,5,20,0.00,0,,139
2013-4-22,64,50,37,34,30,27,81,47,24,30.36,30.23,30.08,10,10,10,12,6,17,0.00,0,,144
2013-4-23,66,50,35,54,40,34,100,71,46,30.08,29.95,29.88,10,9,3,17,8,23,0.00,5,Rain,181
2013-4-24,46,40,35,36,30,23,100,72,43,30.15,30.02,29.90,10,10,10,17,11,25,0.00,4,Rain,330
2013-4-25,50,42,33,34,31,25,87,65,43,30.35,30.21,30.09,10,10,10,18,8,26,0.00,3,Rain,250
2013-4-26,64,48,32,41,34,28,93,56,34,30.39,30.34,30.28,10,10,10,18,5,24,0.00,0,,182
2013-4-27,69,53,37,45,38,30,100,53,23,30.32,30.19,30.02,10,10,10,13,3,17,0.00,3,,145
2013-4-28,59,52,46,52,49,45,100,87,63,30.02,29.90,29.85,10,8,0,7,2,,0.00,8,Fog-Rain,15
2013-4-29,71,56,42,54,49,43,100,71,43,29.95,29.89,29.84,10,7,0,15,5,21,0.00,2,Fog,198
2013-4-30,82,70,59,59,52,46,72,57,30,29.99,29.90,29.85,10,10,10,16,11,26,0.00,0,,176